{"data":{"norad_id":68007,"intl_designator":"2026-039X","name":"STARLINK-36592","alt_names":[],"object_type":"PAYLOAD","status":"ACTIVE","operator":null,"country":"US","launch_date":"2026-02-27","launch_site_code":"AFETR","launch_vehicle":null,"mission":null,"orbit_class":"UNKNOWN","rcs_meters":null,"size_class":null,"mass_kg":null,"dimensions":null,"purposes":["comms"],"wikipedia_slug":null,"has_3d_model":false,"image_url":null,"decayed_at":null,"tle_current":{"epoch":"2026-05-24T22:28:26.143680Z","epoch_age_seconds":74445,"freshness":"FRESH","line1":"1 68007U 26039X   26144.93641370  .00017732  00000+0  65220-3 0  9998","line2":"2 68007  43.0054 338.3867 0001927 274.0099  86.0532 15.27587382 13362","mean_motion":15.27587382,"eccentricity":0.0001927,"inclination_deg":43.0054,"raan_deg":338.3867,"arg_perigee_deg":274.0099,"mean_anomaly_deg":86.0532,"bstar":0.0006522,"rev_number":1336,"period_min":94.266293173663,"perigee_km":481.70484546379,"apogee_km":484.34913806622,"semimajor_km":6861.163991765,"source":"CELESTRAK","updated_at":"2026-05-25T13:38:21.783531Z"}}}